EW3619 Weather Reports


Display with metric or nautical units.
time (UTC)temp
F
wind
direction
speed
MPH
gust
MPH
rain 1hr
in
rain 24hr
in
rain mn
in
humidity
%
barometer
mb
20260506211513 71 285 7.0 14.0 0.00 0.00 0.00 1 1015.3
20260506210010 72 242 5.0 16.0 0.00 0.01 0.00 1 1015.4
20260506204504 72 277 8.0 13.0 0.00 0.01 0.00 1 1015.6
20260506203059 72 240 6.0 12.0 0.00 0.01 0.00 1 1015.7
20260506201556 72 224 6.0 14.0 0.00 0.01 0.00 1 1015.6
20260506200051 73 222 6.0 11.0 0.00 0.01 0.00 1 1015.5
20260506194558 74 216 8.0 14.0 0.00 0.01 0.00 1 1015.7
20260506193041 73 273 2.0 10.0 0.00 0.01 0.00 1 1015.7
20260506191537 72 350 5.0 11.0 0.00 0.01 0.00 1 1016.1
20260506190033 72 299 3.0 10.0 0.00 0.01 0.00 1 1016.1
20260506184531 71 200 1.0 11.0 0.00 0.01 0.00 1 1016.3
20260506183024 70 340 2.0 6.0 0.00 0.01 0.00 1 1016.3
20260506181519 69 207 4.0 8.0 0.00 0.01 0.00 1 1016.8
20260506180024 69 280 7.0 11.0 0.00 0.01 0.00 1 1016.9
20260506174510 68 329 3.0 9.0 0.00 0.01 0.00 1 1017.1
20260506173005 67 350 4.0 12.0 0.00 0.01 0.00 1 1017.3
20260506171503 67 290 2.0 10.0 0.00 0.01 0.00 1 1017.3
20260506164559 66 324 0.0 5.0 0.00 0.02 0.00 1 1017.1
20260506163049 64 218 0.0 9.0 0.00 0.02 0.00 1 1017.4
20260506161544 62 72 0.0 4.0 0.00 0.02 0.00 1 1017.4
20260506160041 58 119 1.0 7.0 0.00 0.02 0.00 1 1017.3
20260506154534 56 159 0.0 1.0 0.00 0.02 0.00 1 1017.4
20260506153032 55 181 1.0 4.0 0.00 0.02 0.00 1 1017.5
20260506151532 55 196 0.0 3.0 0.00 0.02 0.00 1 1017.6
20260506150021 54 210 0.0 2.0 0.00 0.03 0.00 1 1017.7
20260506144516 53 187 0.0 2.0 0.00 0.03 0.00 1 1017.6
20260506143012 51 132 0.0 1.0 0.00 0.03 0.00 1 1017.7
20260506141507 51 57 0.0 2.0 0.00 0.03 0.00 1 1017.7
20260506140004 51 219 0.0 1.0 0.00 0.03 0.00 1 1017.6
20260506134600 50 209 0.0 2.0 0.00 0.03 0.00 1 1017.5
20260506133102 49 217 0.0 1.0 0.00 0.03 0.00 1 1017.3
20260506131550 48 215 1.0 3.0 0.00 0.03 0.00 1 1017.2
20260506130046 48 326 1.0 3.0 0.00 0.04 0.00 1 1017.1
20260506124541 47 326 0.0 2.0 0.00 0.04 0.00 1 1017.0
20260506123037 47 326 0.0 3.0 0.00 0.04 0.00 1 1016.7
20260506121533 47 331 1.0 3.0 0.00 0.04 0.00 1 1016.8
20260506120037 47 342 2.0 4.0 0.00 0.06 0.00 1 1016.7
20260506114525 47 342 3.0 5.0 0.00 0.06 0.00 1 1016.8
20260506113021 47 339 1.0 3.0 0.00 0.06 0.00 1 1016.6
20260506111516 47 338 1.0 3.0 0.00 0.06 0.00 1 1016.7
20260506110012 47 338 0.0 2.0 0.00 0.09 0.00 1 1016.5
20260506104508 47 338 1.0 3.0 0.00 0.09 0.00 1 1016.6
20260506103003 47 342 2.0 4.0 0.00 0.09 0.00 1 1016.4
20260506101559 47 346 2.0 4.0 0.00 0.09 0.00 1 1016.3
20260506100059 47 341 3.0 5.0 0.00 0.09 0.00 1 1016.2
20260506094550 48 319 1.0 2.0 0.00 0.14 0.00 1 1016.3
20260506093045 47 317 2.0 5.0 0.00 0.14 0.00 1 1016.3
20260506091541 47 326 2.0 4.0 0.00 0.14 0.00 1 1016.4
20260506090036 48 319 0.0 3.0 0.00 0.20 0.00 1 1016.5
20260506084539 48 319 0.0 2.0 0.00 0.20 0.00 1 1016.7
20260506083029 48 319 1.0 4.0 0.00 0.20 0.00 1 1017.0
20260506081527 49 326 1.0 4.0 0.00 0.20 0.00 1 1017.1
20260506073010 50 306 0.0 3.0 0.00 0.21 0.00 1 1017.1
20260506071506 51 304 1.0 3.0 0.00 0.21 0.00 1 1017.2
20260506061554 52 335 0.0 2.0 0.00 0.21 0.21 1 1016.8
20260506044521 54 351 1.0 3.0 0.00 0.21 0.21 1 1016.3
20260506043016 56 351 1.0 4.0 0.00 0.21 0.21 1 1016.1
20260506041513 57 288 1.0 3.0 0.00 0.21 0.21 1 1015.8
20260506040016 57 288 2.0 4.0 0.00 0.21 0.21 1 1015.6
20260506034503 57 268 1.0 3.0 0.00 0.21 0.21 1 1015.5
20260506033100 58 260 2.0 4.0 0.00 0.21 0.21 1 1015.3
20260506031556 58 273 0.0 2.0 0.00 0.21 0.21 1 1015.3
20260506030057 59 272 2.0 4.0 0.00 0.21 0.21 1 1015.1
20260506024549 60 259 3.0 7.0 0.00 0.21 0.21 1 1014.8
20260506023054 61 271 2.0 5.0 0.00 0.21 0.21 1 1014.5
20260506021543 61 259 4.0 9.0 0.00 0.21 0.21 1 1014.4
20260506020035 62 246 2.0 7.0 0.00 0.21 0.21 1 1014.2
20260506014529 62 274 2.0 8.0 0.00 0.21 0.21 1 1014.1
20260506013025 63 248 5.0 10.0 0.00 0.21 0.21 1 1014.1
20260506011520 63 279 3.0 9.0 0.00 0.21 0.21 1 1014.1
20260506010033 64 285 5.0 10.0 0.00 0.21 0.21 1 1013.9
20260506004515 64 231 4.0 9.0 0.00 0.21 0.21 1 1013.9
20260506003007 64 249 4.0 11.0 0.00 0.21 0.21 1 1013.8
20260506001502 65 204 5.0 12.0 0.00 0.21 0.21 1 1013.8
20260506000059 65 234 7.0 11.0 0.00 0.21 0.21 1 1013.7
20260505234607 65 256 3.0 13.0 0.00 0.21 0.21 1 1013.6
20260505233049 65 300 5.0 13.0 0.00 0.21 0.21 1 1013.7
20260505231545 66 300 4.0 10.0 0.00 0.21 0.21 1 1013.9
20260505230040 66 302 5.0 14.0 0.00 0.21 0.21 1 1013.7
20260505224536 65 305 6.0 15.0 0.00 0.21 0.21 1 1013.9
20260505223034 66 266 3.0 13.0 0.00 0.21 0.21 1 1013.9
20260505221527 66 298 4.0 14.0 0.00 0.21 0.21 1 1013.9
20260505220022 66 258 6.0 15.0 0.00 0.21 0.21 1 1014.0
20260505214529 66 207 8.0 15.0 0.00 0.21 0.21 1 1014.1
20260505213013 65 229 4.0 12.0 0.01 0.21 0.21 1 1014.3